Theta_e
296 297 297 297 298 296 295 293 294 293 293 294 294 295 292 297 293 292 294 299 301 303 307 311 314 316 317 318 321 323 325 327 327 328 329 327 328 329 331 331 331 332 333 333 334 335 336 338 338 340 341 342 343 343 342 343 344 345 348 348 347 347 348 348 349 351 352 354 352 349 350 351 352 351 352 350 351 350 350 349 349 348 348 347 346 345 345
298 298 297 297 297 296 295 295 295 293 293 295 296 295 296 299 296 298 298 300 303 306 307 311 314 318 319 320 324 326 327 327 329 328 327 327 328 329 330 331 331 332 333 334 334 335 336 337 338 339 340 341 343 343 343 344 345 348 349 348 347 347 347 347 347 348 349 351 352 352 351 349 348 347 347 347 348 347 348 349 349 349 348 349 348 346 346
297 296 298 296 296 296 298 299 297 294 293 294 295 296 300 304 301 301 300 301 302 306 312 316 320 321 323 324 324 324 325 327 329 328 327 327 328 329 330 330 331 332 333 334 334 335 335 337 338 339 340 341 343 343 344 345 346 347 348 346 347 346 345 345 346 347 347 348 348 348 347 345 344 345 345 345 346 346 346 346 346 347 350 348 347 349 348
293 295 298 299 296 298 299 299 300 298 295 296 294 296 300 299 298 301 302 301 301 305 315 318 320 321 322 322 322 323 324 327 328 328 327 328 328 329 330 330 331 332 333 333 334 334 335 336 337 339 339 341 342 341 343 344 345 347 346 345 345 344 344 345 345 346 347 346 346 345 345 344 343 344 345 344 344 345 346 346 347 347 346 346 346 346 346
292 296 298 299 297 295 295 297 300 301 299 300 299 300 304 304 302 301 298 299 306 307 316 316 317 320 320 321 322 323 324 326 329 329 329 329 329 330 330 331 332 332 333 334 334 335 335 336 337 338 340 341 341 342 342 345 347 346 345 344 343 343 343 344 344 344 343 342 341 341 341 340 341 342 344 344 344 343 343 345 346 345 345 346 347 347 347
293 298 298 297 292 289 292 300 303 307 303 303 301 302 302 301 306 302 304 305 309 312 315 316 317 319 321 323 325 327 327 327 328 329 329 330 331 331 331 332 333 333 334 335 335 336 336 337 339 340 343 343 344 346 347 347 346 345 343 342 343 343 342 343 343 343 342 341 340 340 340 340 341 342 342 342 342 342 343 344 344 344 344 346 348 349 349
295 297 296 292 287 289 298 302 304 308 306 308 308 308 309 311 311 309 305 305 309 312 315 316 320 322 322 324 325 326 328 330 331 330 330 330 331 331 332 332 334 334 336 336 335 336 338 339 340 341 342 346 346 344 344 343 343 342 341 341 342 343 343 341 341 342 342 341 340 339 340 341 341 341 341 341 341 342 342 342 343 344 344 344 344 346 348
297 295 292 286 289 298 303 304 307 315 309 309 304 302 308 312 314 311 308 309 307 310 313 317 320 320 321 323 324 325 327 331 331 331 331 331 332 332 333 334 334 336 337 337 338 338 342 344 342 342 344 345 343 341 340 340 342 342 340 339 339 340 340 341 340 341 342 342 341 340 339 340 340 341 342 341 341 342 344 344 344 343 343 342 342 343 344
295 295 294 293 298 301 302 305 309 311 308 309 303 297 305 313 316 315 314 313 309 313 315 318 320 321 320 318 320 324 327 329 331 333 333 333 334 335 335 336 336 338 340 340 340 344 343 343 344 344 345 344 341 339 337 338 340 340 340 338 338 340 340 339 339 339 340 340 340 340 339 337 336 336 337 339 340 342 342 342 341 341 341 341 342 342 342
297 294 289 289 290 291 297 305 310 315 316 316 313 305 299 307 317 320 318 316 311 314 317 319 319 320 316 314 316 321 325 329 330 331 332 335 336 337 337 338 338 340 341 342 345 343 342 342 343 345 345 343 340 338 336 336 337 337 338 337 338 338 339 339 339 339 339 339 339 340 339 336 336 336 337 338 339 341 340 339 338 339 340 340 340 340 340
297 294 290 288 289 292 300 305 311 316 317 317 314 299 295 305 317 321 320 318 314 314 317 318 319 316 311 311 316 320 325 327 331 330 331 334 336 337 338 339 339 340 341 343 344 342 341 340 340 343 343 343 341 339 338 336 336 336 337 336 337 337 337 338 339 339 339 339 338 338 339 339 339 338 338 339 339 340 339 338 338 338 339 338 338 338 339
298 294 290 290 293 297 308 313 316 318 318 315 301 293 296 303 319 322 321 319 317 313 318 319 318 314 310 312 316 320 326 328 330 331 330 332 334 336 339 341 341 341 344 343 341 340 340 338 340 342 343 342 343 341 342 341 340 339 339 339 339 339 339 338 338 338 338 338 338 338 338 340 340 340 340 339 338 338 338 339 339 338 339 339 338 340 341
300 299 294 294 295 304 312 315 317 318 319 306 295 290 298 314 320 322 321 320 318 316 318 320 316 317 317 319 319 323 327 327 327 328 331 333 335 336 340 341 344 341 341 341 341 341 339 337 338 340 343 344 343 344 344 344 344 344 343 340 339 338 338 337 337 336 337 337 338 338 339 340 340 340 340 339 338 337 338 338 338 338 339 340 340 341 342
297 297 295 295 296 302 313 317 318 319 309 298 297 308 311 317 321 323 321 317 316 317 320 318 317 317 318 324 322 325 327 327 326 329 331 335 338 340 342 343 342 340 338 337 336 336 336 337 338 339 342 344 343 344 342 342 345 345 344 343 341 340 339 338 338 338 338 338 339 340 341 340 338 338 338 338 338 338 338 339 339 339 339 338 336 336 337
295 295 294 291 289 303 316 316 315 318 302 305 309 316 320 323 322 323 321 321 318 320 320 320 318 317 318 320 323 325 326 326 328 330 332 334 337 339 340 339 341 339 336 336 336 336 337 337 338 339 343 344 344 344 341 343 343 343 344 343 342 340 340 338 339 339 339 340 342 342 341 340 338 337 336 337 338 337 336 335 333 332 331 330 332 333 334
293 292 291 291 300 311 317 316 310 315 318 320 319 318 318 322 322 322 322 322 322 320 319 319 319 318 319 320 322 324 325 327 330 332 333 336 338 339 340 340 340 340 336 337 338 338 338 338 338 341 345 345 344 341 341 342 342 343 342 342 342 341 341 340 341 341 342 344 343 341 342 338 336 334 333 331 333 333 331 332 330 330 329 328 329 330 331
301 298 300 306 312 315 318 319 317 319 321 322 322 321 320 320 321 323 322 322 322 322 321 319 319 318 319 320 322 323 324 328 331 333 334 337 338 339 339 339 340 339 338 338 339 338 338 338 338 340 344 345 346 342 340 342 342 341 340 341 342 342 342 341 341 341 342 342 340 340 342 340 339 336 334 333 333 330 333 331 330 330 329 332 330 328 327
311 311 313 316 317 317 319 321 321 320 321 322 323 323 321 322 323 324 323 324 323 322 323 320 319 320 319 319 320 324 327 330 332 335 336 337 339 339 339 339 339 338 339 339 339 338 337 338 339 342 342 344 344 341 341 343 340 340 341 341 341 339 339 339 339 340 339 338 338 339 339 340 340 337 336 335 334 331 331 330 330 329 329 331 331 329 327
301 299 310 313 314 316 318 319 321 321 321 320 321 321 323 324 324 324 326 325 324 323 322 320 319 318 318 320 322 325 328 331 333 335 336 337 338 338 338 338 339 338 339 339 338 339 338 338 339 341 342 342 343 341 342 340 339 340 341 342 342 339 339 339 338 338 338 336 333 332 333 333 333 336 337 336 335 335 330 328 328 328 329 332 331 329 328
304 304 310 314 316 316 318 318 317 317 318 319 321 321 325 326 327 326 326 326 325 325 322 321 320 318 319 321 322 325 328 331 333 335 336 336 337 338 339 339 340 340 340 339 339 338 338 337 338 341 341 342 341 342 342 340 340 340 342 342 340 337 336 338 337 335 336 342 333 328 326 327 328 328 329 332 333 332 330 328 328 327 328 330 330 329 327
308 312 314 316 317 316 315 317 318 318 317 318 320 321 325 327 325 326 327 328 326 325 323 323 324 322 321 323 325 327 329 331 332 334 335 336 337 337 338 339 340 340 339 339 338 338 338 336 338 340 340 341 341 341 341 340 340 340 341 345 338 334 333 333 337 344 338 341 329 326 322 320 315 315 318 322 324 322 319 319 321 322 324 324 327 324 322
301 305 310 315 308 308 313 314 316 317 319 320 320 323 328 327 327 328 325 326 328 328 325 326 327 325 325 325 327 328 329 330 331 332 334 335 337 337 339 340 340 340 340 338 337 337 336 335 337 338 338 339 341 341 341 340 340 340 342 338 333 331 331 333 335 335 333 330 327 325 321 320 318 318 314 305 307 318 321 321 312 305 305 316 311 314 318
305 313 317 317 316 314 314 316 317 318 319 320 321 324 328 330 329 329 327 323 325 328 329 329 329 328 327 327 328 328 329 330 331 333 335 336 336 336 338 338 338 338 337 337 336 336 335 334 336 337 337 337 338 339 340 340 340 339 338 337 333 331 333 334 338 336 331 327 326 323 322 321 320 320 318 316 300 300 309 313 306 296 295 297 300 303 311
313 316 317 318 315 313 316 317 318 318 320 322 323 327 330 331 330 328 328 327 325 328 330 332 332 331 331 331 331 330 330 331 332 332 333 334 335 336 338 338 337 336 336 336 336 336 334 335 335 336 337 336 336 338 339 339 338 337 337 337 334 332 331 332 339 339 330 330 327 324 322 321 321 321 320 320 321 303 299 305 303 298 296 295 295 296 299
312 318 319 319 318 318 319 320 320 320 322 324 324 325 327 329 330 329 326 326 328 329 330 330 331 332 331 331 332 331 330 330 331 331 331 331 332 331 333 336 336 336 336 336 335 334 333 333 334 335 336 336 336 337 337 337 337 336 335 335 333 331 332 335 338 340 337 333 329 326 324 323 322 322 321 322 323 325 316 299 299 299 298 296 294 295 295
318 318 319 320 320 320 321 320 320 321 321 323 324 325 327 329 330 328 326 327 327 329 330 330 330 331 332 330 329 328 328 328 330 330 328 329 328 328 327 327 329 332 333 333 332 331 331 332 332 333 334 334 334 335 337 336 336 335 335 334 334 332 332 334 333 332 335 336 333 328 327 325 325 324 324 324 324 324 324 326 323 307 295 294 294 294 293
319 320 319 317 316 317 318 317 316 321 322 324 324 326 326 326 328 328 327 327 328 328 329 330 330 329 329 329 329 328 327 327 328 328 329 328 328 328 329 329 330 331 333 332 333 335 336 333 332 331 331 332 334 337 338 336 335 334 334 334 333 339 340 338 331 332 332 331 333 332 330 329 330 331 329 330 330 328 327 328 329 330 332 317 299 294 302
317 318 318 314 312 314 317 321 322 322 323 323 324 325 327 327 326 326 326 325 326 326 327 327 327 326 326 327 327 326 327 326 325 327 328 328 329 330 330 330 330 331 331 330 330 331 331 330 330 330 330 332 333 335 336 336 334 334 334 333 333 333 334 339 336 332 332 331 331 331 333 333 334 335 335 336 335 335 331 331 331 330 330 325 316 306 299
317 316 317 318 318 320 322 322 321 321 321 323 325 326 326 325 324 324 324 325 325 325 325 326 328 328 327 327 327 327 327 326 325 325 325 327 330 330 330 330 331 331 330 329 329 329 329 329 329 330 330 332 333 333 333 334 333 334 334 334 333 333 332 333 334 332 331 331 331 331 332 334 335 335 336 337 337 337 336 334 334 332 330 324 317 317 311
317 318 319 319 320 320 320 318 318 320 321 322 323 325 325 324 323 323 323 324 325 324 324 326 327 327 328 327 327 326 325 325 325 326 327 327 328 329 330 331 331 330 329 329 328 328 328 329 329 329 330 332 334 333 332 331 330 330 332 332 332 332 332 332 332 332 330 330 332 334 335 334 334 334 336 335 336 336 336 336 334 332 331 325 323 321 321
318 317 317 318 319 319 319 318 318 320 321 322 323 324 325 325 323 322 322 322 324 323 324 324 324 325 326 326 326 327 328 328 328 328 329 329 330 331 331 330 329 328 328 329 330 330 330 330 330 330 332 333 333 333 331 331 330 330 329 330 331 330 330 332 333 333 331 332 333 332 332 332 332 334 334 333 333 333 333 334 334 334 332 327 324 324 324
317 315 315 316 317 318 318 318 318 319 320 322 323 322 323 322 322 322 323 323 323 324 324 325 325 325 326 327 328 328 328 329 329 329 330 330 331 331 332 331 331 331 330 330 331 331 331 331 331 332 333 333 333 334 332 330 329 329 329 332 330 330 331 331 332 333 335 335 334 332 334 333 332 333 334 334 333 333 332 331 331 331 330 329 328 327 326
315 314 313 313 316 316 316 317 318 318 319 319 320 322 324 325 324 325 325 325 325 326 326 325 326 327 327 327 327 328 328 328 329 328 328 328 329 330 331 331 330 330 330 330 331 332 332 331 331 332 333 333 333 334 333 331 329 329 330 330 330 332 334 329 330 331 334 335 332 333 332 333 332 332 331 333 333 334 333 332 332 332 332 332 331 330 326
316 317 317 317 317 314 315 316 319 319 320 321 322 324 325 324 324 325 326 326 325 325 325 325 326 326 327 327 327 328 328 327 325 325 326 327 327 328 328 328 327 326 326 327 328 328 330 333 332 331 332 334 333 333 332 330 329 328 329 330 330 329 330 329 329 331 330 331 330 330 329 329 329 330 331 332 332 331 332 333 333 333 333 332 332 331 321
321 322 321 320 320 320 321 320 320 320 320 322 324 324 325 324 324 325 327 325 324 324 326 326 326 327 328 328 327 327 326 325 325 326 326 326 325 326 326 325 323 323 323 323 324 325 328 331 334 332 332 333 333 333 332 329 329 329 328 329 330 330 330 332 331 331 329 328 329 328 328 329 330 331 330 330 329 330 330 331 332 333 332 332 332 332 328
322 320 320 319 320 322 322 321 322 322 322 322 322 323 323 324 324 324 324 324 325 326 327 327 328 328 327 327 326 326 325 326 325 324 323 323 323 323 321 320 320 320 321 322 324 325 328 332 337 337 333 334 334 334 336 331 327 327 328 328 328 328 328 328 327 328 327 327 326 327 328 329 328 328 328 326 327 327 327 326 327 327 328 328 329 329 329
322 320 320 321 321 321 321 321 322 323 323 323 324 324 324 325 325 326 326 326 326 327 327 328 327 326 325 325 325 325 324 323 323 322 321 321 321 320 320 320 320 320 320 319 321 325 328 332 335 334 331 331 333 335 337 336 328 327 328 328 328 328 327 326 327 326 326 327 326 326 326 325 325 324 326 325 325 326 326 326 326 325 325 325 326 326 326
321 320 319 318 319 320 321 322 324 324 323 326 328 328 327 326 327 327 327 328 328 328 328 327 326 325 324 324 322 321 321 321 320 320 319 319 319 318 318 318 318 319 318 318 322 326 329 330 331 329 328 329 330 332 334 335 332 328 328 329 329 329 328 327 327 327 326 326 326 325 325 324 324 324 325 325 325 325 326 326 325 324 324 324 324 324 323
318 317 319 321 322 322 322 324 324 324 325 323 324 327 329 329 329 329 328 328 328 328 327 325 325 323 321 320 319 318 318 318 318 317 317 317 318 317 316 317 318 320 321 324 324 326 328 327 326 324 324 325 326 328 330 331 329 325 326 326 327 328 328 328 327 326 326 327 326 325 325 325 325 324 324 325 325 325 325 325 324 324 323 323 322 322 322
316 318 321 323 322 322 321 320 321 323 326 327 326 326 328 328 328 327 327 327 328 328 326 325 323 320 320 319 318 317 318 318 317 316 315 316 316 316 316 317 319 321 324 325 323 325 327 327 324 322 323 324 324 324 326 326 326 324 323 323 324 324 325 325 325 324 324 324 323 324 324 323 323 323 323 323 323 323 322 322 321 321 320 319 318 318 318
318 320 321 321 321 321 320 320 321 323 324 325 326 327 328 327 327 326 325 325 325 325 324 323 322 321 320 320 319 318 318 318 317 316 316 315 314 314 314 313 318 320 321 322 323 324 324 325 323 320 320 322 324 324 322 323 322 321 322 323 322 322 321 321 322 321 320 320 320 320 320 320 320 320 320 320 319 319 319 318 317 317 316 314 314 314 314
318 320 320 320 320 320 321 323 323 322 322 324 324 325 325 326 326 324 324 324 323 323 322 322 323 320 319 318 317 316 315 315 315 315 316 315 313 313 312 314 318 320 322 320 320 321 320 321 322 323 321 321 322 323 322 321 319 319 319 319 320 320 320 319 319 319 319 319 318 318 318 318 318 318 318 318 317 316 315 314 313 313 312 312 312 311 311
320 320 320 320 320 321 322 323 322 322 322 323 324 325 325 325 325 324 324 323 322 322 321 321 321 320 318 317 316 315 315 315 315 315 315 315 317 317 315 315 318 320 321 319 318 317 319 320 320 321 323 322 321 321 320 317 317 317 317 317 318 317 317 317 317 317 316 316 316 316 317 316 316 316 316 315 314 313 312 311 311 311 311 310 310 310 311
321 321 321 321 321 322 322 322 322 321 321 321 322 323 323 323 323 322 321 320 320 319 318 318 317 317 317 317 316 315 314 314 314 314 313 313 314 317 319 318 318 320 320 318 317 317 317 318 319 319 320 319 321 320 317 316 316 315 315 315 314 314 314 314 314 313 313 313 313 313 313 314 314 314 314 314 313 312 311 310 310 310 310 310 310 310 310
320 321 321 321 321 320 320 320 320 319 320 320 320 319 319 319 319 319 319 318 318 317 317 315 314 314 314 314 314 313 314 315 315 314 312 311 311 312 318 319 318 318 318 318 316 316 316 316 317 317 317 316 316 316 313 313 313 313 313 312 312 312 311 311 312 312 312 312 312 312 312 311 312 312 312 312 312 311 310 309 308 308 308 308 308 308 308
322 322 323 323 320 319 320 320 320 320 319 317 316 316 317 316 316 316 316 315 315 314 314 314 313 313 313 313 313 313 313 313 313 314 314 313 313 314 319 319 318 318 318 317 315 314 315 317 316 315 315 314 314 310 310 311 311 311 310 310 310 310 310 310 310 310 310 310 310 310 310 310 310 310 310 310 310 309 309 310 309 308 308 307 307 307 307
321 321 321 321 321 321 320 320 320 318 316 315 314 313 314 314 314 314 313 314 313 313 313 313 313 313 312 312 312 312 311 311 311 312 314 316 317 318 318 319 319 319 318 316 316 315 315 315 315 315 314 314 313 309 309 309 309 309 308 308 308 308 308 307 307 307 307 308 308 309 310 309 309 309 309 309 309 308 308 308 307 307 307 307 306 306 306
321 321 321 321 320 320 320 318 316 314 313 312 312 312 313 313 313 313 313 312 312 311 311 312 312 312 311 310 310 310 310 311 309 309 311 313 314 315 315 315 316 316 316 317 317 317 316 315 314 314 313 313 309 308 309 308 308 307 307 306 306 306 305 305 305 305 305 306 306 306 306 307 308 308 309 308 308 308 308 307 307 307 306 306 305 304 304
321 321 321 321 320 319 317 316 315 314 312 313 313 312 313 313 312 312 311 310 310 310 309 309 309 310 312 313 312 311 313 313 310 308 311 311 312 312 314 316 316 315 313 313 313 314 315 314 314 313 312 311 308 308 307 307 308 307 306 305 305 304 304 304 304 303 303 304 304 304 304 304 305 306 306 307 307 307 307 306 306 306 305 305 304 304 303
320 320 319 318 318 317 316 314 313 312 313 313 312 312 313 312 310 310 311 310 310 311 308 308 309 309 309 309 310 311 311 312 312 312 312 312 312 312 314 314 315 315 314 311 311 312 315 315 314 313 311 308 308 308 308 307 307 306 305 304 303 303 303 303 303 302 302 302 302 302 302 302 302 303 304 305 306 305 305 305 305 304 304 304 304 303 302
318 318 318 318 318 317 317 315 314 314 313 313 312 313 313 312 311 312 310 310 309 309 308 308 308 308 308 309 310 310 311 313 315 316 313 313 314 316 315 314 313 314 312 310 309 308 309 310 310 312 310 309 308 308 307 306 306 305 305 303 303 302 302 301 301 301 301 300 300 300 300 300 300 301 301 301 301 301 301 301 301 301 301 300 300 300 300
316 315 315 315 315 315 315 315 315 314 314 314 313 313 312 312 312 312 312 314 309 308 308 308 307 307 308 310 312 312 312 312 312 312 315 313 311 310 314 314 310 310 309 308 306 306 308 313 314 313 311 308 308 309 309 307 305 305 304 304 303 303 303 301 301 300 300 299 299 298 299 300 299 298 299 299 299 298 298 298 298 298 298 298 297 297 297
Wind_Speed
6 6 6 5 2 1 1 2 2 6 6 8 8 9 5 10 6 9 7 7 6 8 9 10 9 10 12 13 11 5 4 5 4 4 5 5 4 3 3 3 3 5 6 5 6 6 5 6 8 8 8 7 7 7 8 6 7 6 6 5 5 6 6 6 6 5 4 4 6 9 8 7 6 3 4 5 6 5 5 5 5 5 6 6 6 6 6
1 0 1 2 5 1 2 4 2 4 10 11 12 7 7 12 5 5 2 8 12 12 6 4 4 3 2 2 4 5 7 6 5 5 5 5 4 4 5 4 4 3 3 5 5 6 6 7 7 8 7 7 7 8 6 3 3 3 5 4 5 4 4 4 3 2 3 3 3 5 3 3 6 6 5 4 6 6 6 4 2 5 6 5 5 6 6
2 4 5 4 4 5 3 1 3 1 2 5 3 2 2 1 2 1 3 4 10 6 1 2 2 6 5 5 5 5 5 5 5 5 4 5 5 4 3 3 3 2 3 4 5 5 6 6 6 7 7 6 6 5 5 4 4 4 4 4 4 5 5 5 6 5 4 4 2 1 4 6 5 3 3 2 1 2 2 3 3 2 4 6 6 4 5
2 3 11 10 4 3 5 4 6 6 3 2 2 3 6 6 6 1 3 1 7 6 1 6 6 6 8 9 7 6 4 4 5 5 5 6 6 6 5 3 3 3 4 5 6 6 6 6 6 6 7 7 7 6 5 6 6 6 6 7 7 6 6 5 5 5 4 1 1 2 3 4 5 5 5 5 5 5 4 4 3 3 5 6 7 6 5
3 3 7 10 3 4 4 5 3 3 1 2 1 2 2 2 7 6 4 11 4 2 6 7 3 7 6 4 6 4 3 4 6 7 8 6 6 6 5 5 5 5 6 6 6 6 5 5 6 6 7 7 6 6 7 7 7 7 6 6 5 4 4 3 3 2 1 2 2 2 3 4 4 3 2 2 4 5 5 4 4 5 6 6 7 6 5
3 7 9 2 3 2 1 2 0 2 1 2 6 1 3 4 2 4 5 4 2 3 5 11 8 8 10 11 7 5 11 10 7 6 4 5 5 3 3 4 5 5 4 4 5 6 6 5 5 6 6 7 7 8 9 8 8 7 7 6 6 5 4 4 3 2 1 2 2 2 3 4 4 3 2 3 4 4 4 4 5 5 6 6 5 5 4
3 6 8 5 1 3 3 4 1 1 1 6 9 4 4 5 7 8 7 5 0 6 3 4 4 6 4 7 5 3 2 4 8 9 6 5 5 6 5 5 5 6 5 4 5 5 6 7 7 8 7 7 7 7 7 7 6 7 7 7 6 5 4 3 2 2 3 3 2 1 1 2 3 4 3 3 3 2 1 2 3 4 4 5 5 4 4
1 4 4 1 1 4 3 3 2 2 3 3 1 2 3 5 6 4 4 7 6 3 4 4 3 5 4 7 5 2 2 4 5 6 7 6 5 7 7 7 6 7 7 7 7 6 5 6 6 7 8 8 7 7 7 7 6 6 5 5 4 3 3 3 3 3 4 3 3 3 2 3 3 3 5 5 3 1 1 2 3 3 4 4 5 5 5
2 1 1 5 4 2 4 2 3 4 2 3 1 2 0 3 4 5 6 8 5 2 6 8 6 5 5 3 1 0 5 5 4 4 3 5 6 3 4 5 6 5 5 6 5 5 6 7 8 7 7 6 6 8 7 6 6 6 6 5 4 3 4 4 3 5 5 5 4 4 4 3 2 3 1 1 2 3 4 6 6 6 6 6 5 4 4
2 3 6 5 2 1 1 2 0 1 1 2 3 1 2 1 3 2 3 5 6 2 7 9 7 5 6 1 7 4 4 6 7 3 3 3 2 3 6 6 6 5 5 5 5 7 8 9 8 7 6 5 7 8 8 8 7 6 5 5 5 6 6 7 8 7 5 4 4 3 2 3 5 5 5 4 4 5 5 5 5 5 5 5 4 4 4
4 3 1 2 0 2 3 5 6 3 2 5 2 2 1 2 5 5 3 6 3 4 8 8 8 7 6 7 7 6 6 6 7 7 5 5 5 5 6 8 8 6 6 6 7 7 9 10 8 8 7 5 5 7 6 5 5 6 6 5 6 9 8 7 6 4 2 1 1 1 3 5 5 4 4 4 2 3 4 4 4 3 3 4 4 4 5
1 2 1 2 2 1 1 3 7 9 6 1 2 2 1 2 10 7 5 5 3 3 5 9 8 10 8 10 7 5 10 10 9 10 9 7 6 5 5 4 5 7 7 7 6 7 8 9 9 9 7 5 4 4 5 6 6 6 6 6 6 9 5 3 3 3 2 2 2 3 5 5 5 5 4 3 2 2 3 4 5 5 4 4 5 5 5
3 3 2 3 4 4 4 7 12 12 1 1 2 2 4 6 8 7 5 6 5 3 5 6 9 2 1 2 2 7 8 9 5 3 4 5 5 7 7 7 6 6 6 7 8 7 6 8 7 6 6 5 4 4 5 5 5 5 5 5 4 8 7 5 6 3 2 2 3 4 5 4 2 3 2 3 2 3 3 2 3 3 4 4 4 4 4
6 4 3 5 6 3 5 12 11 4 1 0 3 3 3 5 9 7 4 6 1 5 1 2 3 2 1 2 3 8 10 11 8 7 8 9 7 5 4 7 8 7 6 6 6 7 6 7 7 7 7 6 5 4 4 5 6 5 5 4 4 4 6 6 3 4 1 2 4 4 3 2 2 3 2 2 2 2 2 2 3 3 3 3 3 3 2
3 2 3 1 3 1 8 15 6 4 2 1 2 6 6 4 7 4 6 5 5 3 4 0 1 4 6 5 3 4 7 11 11 10 10 10 10 9 8 5 5 7 7 7 7 7 7 8 8 8 9 9 8 7 7 7 4 5 6 6 5 5 4 4 4 3 4 5 4 3 3 3 3 3 2 1 2 1 2 1 1 1 2 1 2 4 4
2 4 4 3 3 6 7 6 1 5 1 4 5 3 6 6 4 5 5 6 3 2 5 2 3 4 7 5 5 5 3 4 8 8 8 8 8 8 7 9 9 7 8 7 7 7 7 8 8 8 9 9 8 8 8 6 6 7 8 9 9 7 5 6 6 7 6 5 5 5 6 6 5 5 4 2 2 1 1 1 1 1 1 1 1 1 2
1 1 2 3 4 6 5 2 3 4 6 3 6 3 6 6 5 3 2 5 4 4 2 5 4 4 3 7 7 8 5 2 6 11 10 12 12 11 11 9 7 8 10 10 8 7 6 7 7 6 6 9 8 8 6 7 8 8 9 9 10 11 11 10 8 7 5 4 4 3 3 5 5 4 4 3 3 1 1 1 0 2 3 2 3 3 3
5 5 4 4 7 9 10 5 2 5 6 7 6 6 7 5 6 6 1 3 7 4 2 8 5 3 4 7 6 8 8 7 5 8 9 7 7 7 7 7 7 8 8 9 8 8 6 5 5 4 4 5 6 4 7 7 7 8 9 9 8 7 7 6 5 4 4 3 2 2 2 2 3 3 4 4 4 3 3 2 1 0 3 3 3 3 4
3 1 4 10 11 13 9 6 6 3 4 5 8 9 6 8 8 8 7 3 6 7 7 8 7 5 6 7 7 8 10 8 7 10 11 10 10 10 10 8 8 8 9 8 8 7 6 4 4 4 4 4 5 7 9 8 9 8 9 8 7 6 6 5 4 4 5 3 2 0 1 0 1 1 2 2 2 2 2 2 2 2 2 2 3 2 3
1 2 5 10 11 12 8 3 9 13 15 14 10 7 8 8 8 7 9 2 6 4 9 8 10 7 7 10 8 8 9 9 7 9 10 10 6 5 8 8 8 8 9 9 8 7 6 5 4 4 4 4 4 5 5 6 6 7 7 7 7 6 6 4 4 4 4 5 4 1 1 2 1 1 2 1 3 4 4 4 4 4 3 3 3 2 3
3 3 4 10 10 11 5 11 9 8 9 12 14 12 9 7 7 9 10 1 4 7 8 8 11 9 5 9 10 9 8 8 7 9 10 9 10 10 9 8 9 9 8 8 8 7 5 4 4 4 4 3 3 4 4 4 5 5 5 5 6 6 5 4 3 2 2 3 3 3 1 2 2 2 2 2 1 1 3 3 3 3 3 3 3 3 2
5 3 5 6 4 7 12 18 16 14 12 10 11 10 4 2 5 6 9 3 3 1 6 9 10 11 7 7 9 10 8 8 4 4 7 7 10 9 8 8 8 7 5 6 6 6 5 3 3 3 3 2 2 2 2 4 4 5 4 5 6 5 5 5 3 3 2 2 3 2 2 2 1 1 5 6 4 3 2 5 8 7 4 1 2 3 4
2 3 5 5 3 5 9 14 16 12 10 9 11 11 11 9 5 7 8 4 2 1 0 4 11 9 9 8 9 9 6 5 3 3 2 9 10 10 9 9 6 6 5 6 6 5 3 2 2 2 2 1 1 1 1 1 3 4 5 5 4 4 4 4 4 4 4 3 3 3 3 3 2 1 1 2 4 6 5 6 5 4 3 2 2 1 1
6 6 5 5 5 6 6 9 14 12 9 8 10 11 12 11 10 8 6 4 5 3 1 4 6 9 8 7 9 13 12 12 13 13 13 12 8 5 6 8 7 7 7 6 7 6 4 3 3 3 2 2 1 1 1 1 2 3 4 5 5 4 3 3 2 3 3 5 4 4 3 2 2 2 1 1 2 1 1 1 1 2 2 2 1 1 1
6 2 2 2 5 10 8 10 12 10 9 8 8 10 12 15 14 12 11 8 5 4 4 8 8 8 13 11 12 13 13 12 12 13 12 11 13 14 13 9 3 6 7 5 5 5 4 3 3 3 1 2 4 4 3 2 2 3 4 4 4 3 2 2 2 2 2 3 3 4 4 3 3 2 2 2 2 3 2 3 5 5 4 4 3 3 2
7 7 4 2 4 7 8 7 4 8 13 11 10 10 11 12 15 13 13 12 10 8 9 8 10 10 11 14 13 15 16 14 13 12 10 10 9 12 15 15 15 12 6 5 5 5 5 4 4 4 5 6 6 5 5 5 3 2 0 1 3 3 3 3 3 2 2 3 4 4 3 3 3 3 3 2 2 2 3 3 3 4 5 5 4 2 3
3 2 2 4 1 2 3 4 5 10 10 11 10 9 10 11 12 9 9 9 8 10 10 9 10 11 12 14 16 15 14 11 11 10 9 11 11 11 12 12 8 10 12 5 5 5 6 6 6 6 6 5 5 4 4 3 3 3 2 1 2 2 4 4 3 3 3 2 2 3 3 3 3 3 3 3 4 3 3 4 4 5 4 1 2 5 3
4 1 1 1 3 4 6 7 4 6 6 9 9 10 10 9 10 12 14 11 8 10 11 9 9 11 13 11 15 14 15 15 12 10 8 6 7 8 12 13 10 6 6 5 6 5 6 6 6 6 6 6 5 4 4 2 1 2 3 2 1 1 1 2 3 3 3 3 3 3 3 3 3 3 3 4 4 4 4 3 4 3 4 1 1 4 8
5 4 2 2 2 5 6 5 3 4 6 7 7 6 8 11 10 10 13 12 8 6 10 9 10 11 11 9 9 8 10 11 13 12 6 5 6 3 9 10 11 11 2 4 4 4 5 6 6 6 6 6 5 4 2 2 0 1 2 3 2 0 1 2 3 3 3 3 3 3 2 3 3 3 3 3 3 3 3 3 3 3 4 3 1 1 4
5 4 2 2 1 2 2 4 6 6 5 7 9 9 9 10 10 11 12 12 10 7 7 7 10 8 8 9 10 8 9 10 9 8 7 7 6 6 5 8 10 8 4 4 6 5 6 7 7 7 7 6 6 4 3 2 2 1 1 2 2 2 2 1 2 2 2 2 2 3 3 3 3 3 3 3 2 2 3 4 3 3 3 2 1 2 3
6 3 2 1 3 3 4 4 4 5 5 6 8 8 7 4 7 10 9 10 10 6 8 9 10 10 11 10 9 10 9 9 8 7 8 8 9 7 6 6 8 7 6 5 6 6 7 7 7 7 7 6 6 7 6 5 3 3 2 2 2 3 3 3 2 2 2 2 1 1 1 2 2 2 2 2 2 2 3 3 3 3 3 2 2 3 3
4 4 5 4 2 2 4 4 4 5 5 4 5 5 6 5 6 5 3 7 7 6 9 11 12 10 8 9 9 9 9 9 8 9 10 10 10 9 9 10 10 9 7 7 7 7 6 6 6 6 6 6 7 7 7 6 3 3 3 3 3 3 4 5 3 2 2 2 1 1 1 1 1 0 0 0 1 2 2 2 3 3 2 3 3 5 3
4 5 5 5 3 3 3 2 2 1 1 0 1 2 1 1 4 4 1 4 1 6 9 10 9 8 8 9 8 9 9 9 10 10 10 11 9 9 9 9 9 10 10 8 8 7 7 6 5 6 7 8 7 6 5 4 4 4 4 4 4 4 4 3 2 2 3 3 2 3 2 2 2 2 2 1 1 2 2 3 3 3 3 3 4 4 3
1 2 4 5 3 2 3 2 3 6 5 2 3 3 3 6 7 6 2 1 4 7 8 8 8 9 8 8 7 9 9 10 10 9 9 9 10 9 8 8 8 8 7 8 8 7 6 5 6 6 6 7 7 6 5 5 4 3 3 3 3 4 5 4 3 4 4 4 3 3 4 3 3 3 2 2 1 2 2 3 3 3 3 3 4 3 4
5 5 5 5 4 4 6 5 6 2 3 5 4 7 9 7 9 6 2 3 4 5 7 8 9 9 10 9 10 10 9 9 9 10 10 9 9 8 7 7 8 8 9 9 8 7 7 6 4 5 6 6 6 5 4 5 4 4 4 5 5 5 5 5 6 6 5 4 5 5 6 5 4 4 4 4 3 3 3 3 3 4 4 4 4 3 2
6 5 4 5 7 7 4 3 2 3 4 4 5 6 8 9 6 3 2 5 6 7 9 9 9 9 10 10 10 9 10 10 9 10 9 8 7 6 8 8 8 8 7 8 8 7 7 6 10 11 7 6 7 6 6 5 5 6 6 6 6 6 6 6 6 6 6 6 6 6 5 5 6 5 5 4 4 4 5 5 5 4 4 4 5 5 4
4 6 5 2 1 1 0 1 3 4 3 3 4 8 8 10 8 4 5 7 8 9 8 9 9 10 10 9 10 10 10 9 8 8 7 7 6 8 8 8 9 8 7 7 7 7 6 6 12 13 8 6 7 7 8 11 6 6 7 7 7 7 8 8 8 7 7 6 6 6 6 6 6 6 7 6 6 6 6 6 7 7 7 7 6 6 5
1 1 3 1 2 3 2 1 1 3 5 4 4 7 8 8 7 6 8 8 8 8 9 9 9 10 10 10 10 10 9 8 9 8 8 7 6 9 10 9 7 6 6 5 6 5 5 9 12 8 6 6 6 7 9 14 11 9 8 8 8 7 7 7 7 7 6 6 6 6 7 6 6 6 7 7 7 7 7 7 7 7 7 8 8 8 7
1 1 2 1 1 2 2 2 4 5 8 7 4 6 8 10 10 9 8 9 9 10 10 10 10 10 10 10 10 9 8 8 8 8 8 8 8 10 9 7 6 6 5 4 4 5 6 7 6 6 7 6 7 7 8 12 13 8 7 7 8 7 7 7 7 7 7 7 6 7 7 7 6 7 7 7 7 7 8 9 7 7 8 8 8 8 8
1 1 3 4 4 2 2 4 5 6 7 7 6 7 9 9 9 9 9 9 8 8 9 9 10 10 10 9 10 9 8 7 7 7 7 7 7 8 7 7 7 6 6 8 6 6 9 13 8 6 6 6 6 6 7 11 10 7 7 7 7 7 6 7 6 7 7 7 7 8 7 7 7 7 7 7 7 8 8 8 9 9 9 8 8 8 8
0 1 1 2 3 2 4 5 7 7 7 6 5 7 7 9 10 10 9 9 8 9 9 9 10 8 8 8 9 8 7 7 7 7 5 7 8 7 8 7 6 6 6 6 6 6 9 9 7 6 6 6 6 6 6 10 8 7 7 6 6 6 6 6 6 6 6 7 7 7 7 7 7 8 7 8 8 7 7 7 8 8 8 8 8 8 8
4 4 3 4 5 5 3 4 7 9 10 9 9 9 8 7 9 10 9 9 9 9 9 9 12 10 9 9 9 9 8 8 8 8 8 7 6 5 7 5 5 4 8 7 6 8 7 6 6 7 6 5 6 10 10 7 6 6 6 6 6 6 7 7 7 6 6 6 6 6 7 7 7 7 7 7 8 8 7 7 8 8 8 8 8 8 8
5 7 5 3 3 5 1 4 7 9 11 9 9 9 8 8 9 10 10 10 9 9 9 9 10 11 10 8 9 8 7 6 7 7 7 6 6 6 5 3 4 6 11 7 7 5 6 5 5 6 9 7 7 11 11 7 6 6 6 6 7 7 7 7 7 7 7 7 7 7 7 7 7 7 8 8 7 8 8 8 7 8 8 8 8 8 7
5 6 5 4 3 2 5 8 9 9 9 8 9 10 10 9 9 10 9 9 9 8 8 8 8 8 8 7 7 6 5 4 5 5 7 6 6 6 5 4 4 7 12 6 5 5 5 5 6 9 13 14 14 14 7 7 7 7 7 8 8 8 8 8 8 8 8 8 8 8 8 7 7 7 7 7 7 7 7 8 7 6 6 6 6 6 6
5 4 5 5 3 6 8 6 9 10 9 9 10 10 10 10 9 8 9 9 8 8 8 7 7 7 7 6 5 5 4 4 3 3 6 6 6 6 4 5 6 5 7 9 5 5 5 7 11 15 13 15 15 13 7 7 7 7 7 7 8 7 8 8 7 8 8 7 7 7 7 7 7 7 6 7 8 7 7 7 6 6 6 6 7 7 7
7 6 7 8 7 8 8 7 8 10 11 12 12 11 9 9 9 8 8 8 8 7 6 6 7 7 7 7 7 7 6 6 5 5 4 4 5 4 3 6 5 6 10 10 5 6 7 15 15 14 15 15 14 9 6 6 6 7 7 7 7 7 7 7 7 7 7 7 7 7 6 6 6 6 6 6 6 6 7 7 6 6 6 6 6 6 6
5 7 7 8 9 9 9 7 8 10 11 11 11 9 7 7 7 7 7 8 8 8 7 7 7 6 6 5 4 6 7 7 6 5 4 5 5 6 7 9 9 10 8 6 6 6 7 8 11 14 15 15 13 6 6 6 6 7 7 7 7 7 7 7 7 7 7 7 7 7 7 7 6 6 6 6 6 6 6 6 6 5 5 6 6 7 7
6 7 7 7 8 8 7 7 8 9 9 9 8 7 7 7 8 7 7 7 8 7 7 7 6 6 6 6 6 5 4 5 8 5 4 5 5 5 5 5 6 9 9 9 10 11 15 14 14 13 13 12 7 6 6 6 6 7 7 7 7 7 6 6 6 6 6 6 6 6 5 5 5 6 6 6 5 5 6 6 6 5 6 6 6 7 7
6 7 7 6 5 6 7 8 9 9 8 7 8 7 7 8 8 7 7 7 8 8 7 7 8 7 7 7 6 6 5 5 5 5 2 4 5 5 5 6 9 9 6 5 6 6 10 12 11 12 12 10 6 6 5 6 6 6 6 6 6 6 5 5 5 5 5 5 5 6 6 6 6 6 6 6 5 6 6 6 7 6 6 6 7 7 7
6 6 6 6 5 3 6 8 8 7 6 7 7 6 5 7 7 6 5 6 6 6 6 6 6 6 6 6 6 6 6 6 5 5 5 6 5 5 5 5 5 7 7 5 5 5 7 11 10 9 7 6 5 5 5 5 5 5 5 6 5 5 5 5 6 7 6 5 6 6 6 6 6 7 7 6 6 6 6 6 6 7 10 7 6 6 6
5 5 5 5 4 1 1 6 8 7 7 7 6 5 5 7 7 5 5 6 6 6 6 6 6 5 5 5 5 5 5 5 5 6 5 5 4 5 5 5 5 4 5 5 5 5 5 5 5 5 6 5 5 5 4 4 4 5 5 4 4 4 5 5 5 5 5 5 5 5 5 5 5 5 5 5 6 5 5 6 6 6 6 5 5 5 5
4 4 5 6 6 5 6 6 6 6 6 6 6 6 6 6 7 6 6 6 6 6 5 7 7 4 4 5 5 5 5 5 5 5 4 4 4 4 5 5 5 5 5 4 5 4 4 4 5 6 5 5 4 4 5 6 4 4 4 4 4 4 4 4 4 4 4 5 4 4 4 4 4 4 4 4 4 4 4 5 5 4 4 4 4 5 4
Wind_Direction
229 230 220 251 291 234 203 234 170 175 171 148 156 204 181 144 178 206 242 166 197 254 235 227 211 191 186 191 192 176 148 125 119 122 119 108 111 117 139 150 157 155 160 152 145 142 139 134 132 130 132 133 138 164 192 172 156 165 165 180 196 200 206 220 233 234 224 217 176 209 233 243 247 291 348 9 23 19 352 316 290 252 219 215 201 201 202
297 23 249 252 214 267 33 340 313 178 157 188 186 189 166 174 192 220 179 178 218 231 254 251 221 190 155 108 94 110 138 156 150 135 121 130 147 166 176 182 186 184 161 145 142 138 139 147 141 135 135 138 149 163 190 194 145 137 146 177 179 185 197 208 229 234 240 228 208 221 245 30 39 61 81 136 182 189 205 199 211 294 285 253 217 202 196
16 355 29 71 169 149 102 336 30 31 213 190 216 114 93 332 344 25 118 172 261 271 195 150 128 116 96 101 141 157 152 142 145 147 148 148 166 185 189 184 188 166 136 124 130 136 145 150 150 138 127 126 130 135 148 152 150 132 133 152 169 172 188 193 199 204 206 220 193 153 131 176 183 134 172 214 75 109 162 186 236 241 292 306 302 280 208
324 360 22 1 44 44 105 38 12 21 76 149 201 168 201 152 203 116 95 56 267 265 145 108 133 136 147 168 167 149 153 160 149 165 177 168 177 185 190 173 152 160 151 151 160 161 156 152 143 131 127 132 137 141 141 147 150 152 156 165 172 177 190 190 191 194 198 209 115 126 128 115 122 153 181 183 176 180 184 187 177 164 212 232 237 241 241
289 276 28 341 5 352 13 341 347 321 277 253 190 339 329 229 143 122 146 223 264 227 176 118 161 164 174 168 172 128 103 170 180 187 191 179 178 189 173 166 175 179 182 181 172 157 154 155 158 136 130 131 132 141 148 157 154 154 151 146 143 151 172 169 185 161 128 149 138 114 117 113 125 147 198 178 185 199 203 186 169 200 218 221 227 223 220
255 319 336 346 61 71 223 233 136 64 325 31 106 71 285 268 177 194 198 247 256 191 183 164 173 164 191 194 184 168 165 166 191 218 210 188 168 162 153 168 169 175 170 171 165 163 162 156 132 119 116 129 152 160 152 145 136 129 125 124 133 147 162 186 175 134 143 177 179 134 90 101 114 153 203 226 218 205 207 210 214 221 234 234 229 226 218
316 332 354 56 95 221 242 295 239 300 146 93 99 115 62 38 8 355 345 336 295 204 274 313 203 170 55 53 117 128 111 162 177 187 189 203 169 165 168 167 168 172 178 160 146 152 155 146 139 132 140 161 155 146 123 105 106 123 128 129 134 148 161 165 121 162 208 219 187 103 144 148 134 148 193 235 247 238 208 235 238 237 210 204 226 230 236
12 29 27 86 224 244 292 302 317 35 83 72 95 10 26 39 41 6 336 305 273 214 154 109 91 103 97 70 65 93 97 145 170 170 190 203 173 178 184 177 174 169 173 174 176 170 141 126 129 143 168 177 152 111 102 119 118 103 97 99 119 127 177 152 120 186 213 195 154 153 174 203 201 176 176 183 183 171 218 263 263 254 241 226 229 229 225
75 262 333 247 275 302 357 12 34 36 9 330 49 135 330 96 36 29 338 312 295 167 117 116 103 96 68 55 357 268 150 157 159 177 193 191 207 177 137 163 177 174 160 158 155 127 117 113 120 150 180 178 117 107 110 114 119 117 119 128 150 206 210 128 165 195 190 167 149 157 168 182 206 241 209 167 183 185 219 225 228 231 241 241 243 234 229
90 41 354 351 10 158 283 219 288 66 78 281 229 134 311 286 45 85 9 318 313 168 114 110 117 91 68 344 268 237 201 157 137 127 123 125 120 122 122 116 135 144 132 119 121 122 116 103 119 151 178 175 128 126 136 143 143 144 150 157 193 217 215 173 185 190 174 159 172 189 190 222 226 217 220 219 208 200 217 225 234 243 250 262 264 257 256
31 46 94 259 161 253 205 285 318 340 346 286 193 77 348 262 351 0 9 324 316 209 141 133 122 110 161 228 240 225 168 157 159 157 154 142 146 140 148 151 148 149 140 137 129 122 120 117 132 152 167 163 127 127 134 138 138 144 159 169 213 230 221 182 180 165 141 135 142 147 253 247 253 265 249 248 238 181 206 209 229 233 249 257 272 274 263
105 109 109 284 200 244 331 305 321 326 328 302 82 52 273 282 336 338 334 305 284 248 188 141 129 145 182 221 243 191 182 162 171 165 151 140 140 131 126 104 131 138 141 128 132 141 143 140 145 147 153 149 139 123 118 134 144 153 169 182 212 248 234 141 177 150 142 211 228 221 230 228 228 237 255 265 242 190 204 206 220 224 227 234 243 252 245
138 106 297 304 297 285 322 328 323 315 343 61 75 192 256 311 324 318 305 275 235 192 200 160 161 202 132 192 198 168 133 112 109 90 98 110 124 143 143 136 137 142 155 158 160 162 137 122 118 119 118 106 93 119 137 147 156 184 183 153 202 264 273 141 126 109 134 162 242 262 256 261 279 265 245 240 234 228 233 225 220 224 221 221 225 239 239
159 173 172 239 253 245 314 319 317 299 35 93 184 243 240 300 308 312 332 356 282 146 79 357 88 170 292 355 66 130 151 149 144 129 117 109 99 85 113 142 144 148 139 115 98 77 76 100 110 123 122 121 137 146 139 175 191 168 171 156 188 254 295 322 36 78 11 276 253 252 263 263 295 278 287 276 262 278 285 285 286 293 305 311 304 298 284
74 122 119 30 319 290 22 330 343 25 101 212 261 299 300 278 293 294 34 37 7 133 175 102 58 77 62 72 92 138 137 132 138 138 136 137 138 141 138 150 175 146 123 101 99 118 132 141 150 155 145 146 156 159 169 192 165 141 146 147 163 188 224 255 274 262 221 210 213 218 222 210 213 240 293 291 293 283 207 203 195 239 271 287 332 327 328
158 162 159 188 203 286 336 17 59 307 276 278 268 284 287 303 301 290 70 32 1 341 147 106 42 71 84 59 81 76 49 108 116 113 115 118 129 145 163 165 159 129 110 115 126 142 155 160 164 164 155 151 157 159 175 163 143 137 137 143 149 164 188 212 224 231 229 214 200 182 170 164 165 164 167 166 153 153 156 163 131 256 243 220 211 254 290
98 205 233 258 293 290 299 250 247 263 295 288 276 261 254 282 303 286 1 70 34 18 132 109 112 58 57 113 108 103 88 3 142 139 151 152 156 158 162 166 144 135 136 139 141 149 168 170 172 171 160 151 159 159 166 145 146 142 144 147 153 162 175 189 198 209 220 222 218 205 172 160 164 168 167 160 165 201 138 80 92 315 299 327 333 311 321
245 239 233 331 333 328 313 310 283 305 320 326 320 293 287 271 259 290 264 138 92 55 69 97 45 78 137 110 119 107 117 137 174 140 133 140 149 148 129 123 135 140 138 135 141 152 181 186 175 172 166 145 148 158 141 150 146 152 148 149 152 158 167 167 176 177 190 248 291 309 293 290 239 200 187 181 183 185 163 154 147 144 292 310 321 332 329
6 138 3 347 332 320 303 300 310 294 328 327 331 314 274 262 274 285 269 154 103 109 85 88 108 114 127 116 123 126 131 149 170 152 147 158 164 151 141 142 136 139 139 140 151 158 166 194 181 183 176 195 157 146 158 156 160 157 150 150 151 154 171 166 166 178 173 186 219 357 4 20 1 320 250 208 205 184 166 188 188 206 221 260 287 290 293
116 293 328 312 318 307 267 288 342 346 340 336 335 308 284 263 260 260 263 159 117 118 94 120 117 134 152 130 133 135 143 154 178 157 154 155 135 102 122 132 140 144 151 155 156 152 166 183 192 183 189 188 167 161 149 152 144 148 148 152 147 147 143 143 146 168 164 163 140 69 33 20 13 9 357 318 219 199 205 205 212 236 242 258 256 260 273
304 298 333 338 343 334 332 322 330 336 338 331 328 329 316 304 277 274 271 287 100 107 133 136 119 115 142 140 140 138 141 152 185 174 159 151 135 128 133 142 155 159 162 155 150 147 162 183 188 184 186 187 158 156 143 126 139 140 135 129 119 119 118 109 74 89 90 119 142 140 103 38 38 27 346 336 0 5 23 18 12 345 327 333 354 360 328
16 329 305 334 25 308 320 316 316 327 332 336 329 326 331 342 310 296 282 354 357 109 151 127 113 120 140 141 140 143 149 155 186 179 133 122 125 128 137 147 164 158 147 130 136 146 168 178 165 167 181 177 108 82 91 125 132 136 125 114 118 119 121 118 124 107 93 93 111 134 140 144 124 63 57 53 15 353 0 49 55 61 67 66 25 350 335
247 218 204 227 224 274 266 272 291 313 322 336 341 340 342 341 346 325 318 299 344 332 38 112 116 126 141 155 146 140 128 110 73 358 88 131 133 137 143 143 157 132 105 121 132 143 143 93 105 115 121 54 55 30 60 81 127 130 129 131 130 134 128 139 144 137 140 131 130 135 153 155 155 150 301 6 36 41 19 12 17 33 80 97 72 38 314
257 258 231 190 199 233 276 285 295 308 316 327 341 346 350 351 345 347 323 313 290 254 28 34 91 120 99 84 82 84 72 67 62 56 35 20 29 83 128 142 134 119 127 141 146 149 129 122 128 129 114 102 98 68 64 76 111 132 148 151 165 170 144 159 145 129 143 141 137 135 132 139 145 154 167 302 302 24 65 295 300 302 315 316 297 201 88
250 225 202 169 238 264 280 285 293 298 316 343 353 349 354 350 350 351 353 343 4 300 80 70 53 83 102 92 89 88 85 76 77 81 75 66 55 37 14 7 52 136 149 153 131 116 107 90 79 65 64 350 360 15 35 77 116 146 148 146 139 134 145 155 163 157 142 148 145 156 157 159 163 169 168 181 246 269 284 238 249 255 255 251 262 276 271
260 284 283 212 215 267 272 276 251 336 340 347 353 354 357 359 348 357 357 355 354 16 43 53 58 51 75 89 88 91 87 86 91 88 80 76 67 63 51 25 356 347 2 48 61 69 75 70 69 53 43 16 13 8 17 19 19 4 56 104 115 139 168 191 171 224 155 159 158 178 176 175 169 170 184 193 214 210 269 294 285 258 234 240 232 217 270
288 270 318 323 341 286 303 28 296 319 326 341 348 354 2 357 354 1 7 357 5 38 49 55 73 75 74 81 83 75 78 77 72 78 93 95 93 98 101 91 46 358 335 356 44 58 67 64 58 58 43 20 13 25 28 28 14 348 332 115 109 186 191 173 203 223 217 185 168 160 162 180 182 181 190 197 201 204 213 244 264 289 295 200 200 204 214
297 297 134 62 299 309 300 318 319 309 334 349 346 356 353 0 5 13 14 5 5 49 52 50 62 76 79 83 89 83 77 71 56 29 30 67 113 120 116 116 109 75 338 332 38 40 47 57 62 57 37 10 10 9 23 44 28 305 296 283 195 131 303 244 176 195 209 221 214 200 193 173 178 188 201 204 212 219 220 231 257 259 279 269 149 191 213
330 326 275 234 251 273 290 308 308 360 357 350 343 359 10 14 4 20 17 357 335 48 67 66 72 74 78 51 41 83 109 113 115 105 85 351 323 93 107 100 101 96 72 308 40 46 60 54 49 48 28 13 15 9 8 60 75 301 287 284 242 221 139 132 145 166 182 197 216 214 186 180 181 195 202 210 208 209 223 233 247 241 252 288 272 173 185
329 322 344 355 332 335 1 358 348 352 10 11 10 359 7 17 16 15 15 345 327 34 51 67 74 67 64 73 67 50 60 70 72 87 96 89 56 8 60 102 101 98 119 46 38 35 53 50 45 37 11 358 13 19 29 56 69 48 352 354 13 31 52 123 145 153 149 186 212 204 195 199 208 205 192 182 178 203 230 244 241 247 257 243 226 276 280
313 320 357 28 20 24 48 16 356 5 15 23 21 355 340 15 30 34 11 315 312 14 32 41 46 49 47 48 57 66 65 72 74 76 81 79 74 67 47 49 73 72 66 54 43 45 48 48 43 30 360 357 16 23 29 34 29 28 35 41 52 57 55 58 92 132 155 156 169 188 201 203 194 195 181 180 184 213 231 237 246 250 249 210 236 253 241
325 341 0 22 39 48 47 32 38 26 25 22 33 356 331 352 50 45 12 298 306 30 59 64 58 42 41 53 55 63 70 76 81 79 80 76 72 67 65 67 73 77 69 59 52 47 45 40 34 13 2 14 22 27 30 29 27 40 28 29 40 43 52 57 56 52 75 72 104 154 204 227 249 243 332 292 258 253 242 244 246 232 223 226 246 236 216
5 359 8 349 355 51 86 85 103 13 333 219 188 230 239 335 40 41 52 250 292 67 74 81 91 98 89 80 75 75 78 79 75 71 67 69 68 68 68 69 66 62 56 46 42 43 44 39 21 5 12 18 23 27 28 25 28 34 31 34 38 37 48 40 54 70 65 73 48 30 12 14 17 23 15 342 310 267 244 248 255 266 262 253 243 239 201
199 203 211 215 197 189 175 192 212 201 210 97 49 349 12 34 30 14 352 246 84 81 87 91 94 96 96 94 91 90 88 84 73 67 61 65 64 62 61 63 63 60 52 40 32 27 20 23 24 16 13 14 14 24 29 33 38 35 37 43 50 53 52 50 47 57 57 53 48 47 48 42 36 22 12 351 328 296 277 267 260 263 275 276 273 261 224
201 196 193 197 219 210 213 204 205 219 77 104 96 60 59 40 37 351 69 43 53 71 84 91 96 98 95 90 84 79 70 72 75 73 71 65 63 59 58 60 56 56 50 38 27 13 3 349 13 29 22 17 19 28 43 43 44 50 45 53 54 53 49 47 49 48 47 39 39 36 31 27 18 17 20 17 17 10 350 323 306 296 291 281 282 283 274
179 168 176 188 208 216 216 224 224 174 147 100 101 108 99 93 77 332 52 88 88 89 94 96 94 92 87 87 86 82 81 77 72 70 66 64 61 59 60 55 53 52 49 42 23 5 358 359 42 42 34 23 26 22 45 49 42 46 51 56 56 51 48 46 43 43 42 41 39 39 38 36 41 38 35 28 29 30 36 33 25 10 349 330 322 319 324
197 181 185 167 14 28 14 354 354 357 4 105 126 105 100 97 106 139 121 105 101 98 95 94 85 79 75 74 74 74 71 72 72 69 68 62 61 62 56 52 45 42 36 38 2 351 354 32 50 43 36 23 23 21 36 44 42 42 46 47 48 48 50 47 44 42 40 39 40 40 39 39 36 36 34 35 33 35 37 34 33 32 29 20 12 4 355
16 43 49 39 157 152 174 201 99 74 44 20 70 89 102 113 119 115 104 103 98 98 96 89 86 85 81 78 74 71 69 72 76 76 72 60 57 66 54 47 37 27 33 16 332 357 24 43 47 44 37 32 28 25 46 54 52 47 44 47 47 49 52 52 50 47 45 43 40 42 43 43 42 41 38 37 37 37 36 35 37 36 33 32 32 32 29
342 357 112 172 167 201 193 116 92 83 98 97 67 103 109 113 114 109 100 94 97 101 99 96 93 88 85 85 83 76 73 75 78 76 72 65 61 67 61 45 32 22 10 347 5 26 38 47 40 37 37 30 34 35 43 51 52 48 42 37 41 41 45 47 49 50 49 47 49 49 49 50 48 47 42 39 39 39 38 38 37 36 37 34 30 30 29
289 309 152 154 157 160 59 57 57 72 82 118 148 126 119 110 105 101 95 91 84 89 95 98 97 96 94 90 89 87 77 74 70 65 66 62 61 66 62 40 21 7 15 29 26 30 43 47 44 34 31 26 30 31 44 51 53 47 45 42 43 43 38 41 47 50 48 46 46 46 43 43 44 42 37 37 37 40 42 39 38 36 36 33 31 28 26
84 322 2 58 73 71 91 87 80 66 64 63 71 89 93 101 103 95 90 91 88 86 88 94 96 89 87 88 88 83 80 71 69 65 67 73 64 57 59 44 4 5 17 33 40 46 46 45 42 37 14 25 26 49 50 50 48 47 50 48 46 51 56 47 44 49 51 51 51 49 44 44 47 47 45 45 43 42 40 39 39 38 38 36 32 28 28
87 65 20 39 63 45 34 96 98 87 81 82 81 84 84 88 95 95 97 95 93 91 95 96 101 99 94 91 90 86 80 77 74 64 57 65 73 78 67 39 357 16 41 38 30 45 40 31 34 41 35 30 35 56 64 60 54 54 53 53 50 47 54 56 46 44 51 52 50 52 56 49 48 51 46 48 47 46 42 38 39 36 35 37 37 31 30
71 70 48 355 73 98 110 79 78 86 89 88 91 92 94 94 89 88 87 87 90 91 91 89 95 96 95 94 92 89 89 87 86 84 74 55 52 58 80 68 15 35 43 37 34 31 34 23 38 38 48 54 58 56 58 56 52 56 53 52 51 48 49 53 51 40 47 47 41 37 41 43 43 45 47 47 49 48 48 46 40 36 35 35 35 34 31
59 78 94 79 21 94 122 108 95 86 77 69 80 88 86 81 81 87 89 90 89 87 92 94 92 91 92 95 95 96 96 93 96 99 96 85 65 49 36 49 27 44 50 41 36 35 33 31 39 47 45 45 49 50 45 48 51 49 48 50 50 48 49 48 45 44 41 43 44 43 40 38 39 36 39 43 45 49 49 47 41 35 34 33 31 33 31
68 66 69 70 69 94 92 91 103 98 92 89 80 79 82 83 78 80 93 96 94 92 89 87 92 92 89 80 82 89 87 80 87 91 97 90 80 62 29 50 50 46 54 54 44 43 44 48 52 54 54 52 54 53 45 43 48 50 51 50 50 47 45 46 41 44 44 41 42 43 45 45 44 43 43 46 48 49 48 46 42 34 32 32 28 27 26
110 104 100 95 70 59 67 80 91 94 93 88 82 74 75 79 84 82 84 89 87 76 70 78 84 88 97 100 96 82 71 67 41 46 75 95 89 98 66 67 59 64 64 61 51 51 55 58 56 57 59 59 57 51 45 43 46 48 50 50 49 46 45 42 40 38 38 35 34 38 40 41 47 46 45 45 46 49 51 50 47 41 37 34 29 25 19
78 83 80 84 84 86 89 85 85 86 87 85 84 85 76 76 80 83 82 84 88 89 83 77 70 61 51 58 76 103 100 85 55 25 22 42 56 63 55 61 59 61 60 60 59 58 60 58 56 57 60 61 59 50 50 50 49 51 51 49 46 44 42 40 35 31 30 31 30 33 36 33 37 42 42 45 46 46 44 43 44 39 34 31 27 22 19
68 76 79 83 95 99 94 87 82 80 79 87 94 92 90 87 87 85 84 84 81 78 75 71 70 68 66 70 65 59 56 96 97 54 6 48 48 51 55 59 62 56 53 51 57 63 65 64 61 60 60 58 52 46 51 51 51 49 49 48 48 45 42 40 36 35 32 33 28 26 24 27 24 32 36 40 41 44 43 43 41 35 32 30 29 24 21
77 90 92 89 90 102 105 101 98 93 96 101 101 101 104 99 92 85 82 78 77 71 67 64 64 60 61 65 68 63 62 44 81 111 61 58 62 61 55 58 61 58 52 48 50 49 66 65 63 62 61 59 52 50 54 52 54 55 54 52 49 47 41 41 34 31 31 31 25 28 21 24 22 23 21 31 38 40 42 44 41 36 32 29 29 24 21
72 81 82 72 62 65 113 109 102 111 115 109 105 109 111 102 90 77 76 81 86 84 75 66 63 62 63 61 59 67 71 80 81 84 80 75 74 68 65 68 67 68 69 65 60 46 55 61 64 65 62 54 54 55 53 56 54 57 53 53 50 44 39 37 36 36 32 29 24 26 26 24 22 25 27 29 30 30 30 32 32 29 28 28 23 19 18
103 101 104 94 94 58 18 98 118 118 115 110 111 110 105 95 94 89 86 88 83 83 79 73 59 58 59 60 63 63 65 66 71 76 72 64 63 71 73 67 63 63 61 58 53 52 50 53 58 62 66 67 65 60 56 59 60 58 59 57 50 46 39 32 28 29 30 31 27 29 34 29 25 25 27 25 26 22 21 21 21 18 21 21 19 17 19
109 115 103 105 103 86 81 83 91 100 103 107 109 106 102 102 100 94 87 85 91 92 96 96 81 44 51 64 63 62 64 72 65 57 61 66 63 57 52 60 56 51 49 53 50 47 42 53 74 81 85 76 62 68 78 79 68 66 62 56 58 52 52 45 39 39 37 34 35 35 32 34 36 33 31 29 30 28 25 23 23 19 18 20 21 19 17